Weather History for Tel Aviv, Israel

Change the Weather History Date:

Saturday, October 29, 2011

  Actual Average Record
Temperature  
Mean Temperature 68 °F -  
Max Temperature 78 °F 74 °F 93 °F (1998)
Min Temperature 58 °F 56 °F 53 °F (2013)
Cooling Degree Days 3    
Growing Degree Days 18 (Base 50)    
Moisture  
Dew Point 49 °F    
Average Humidity 47    
Maximum Humidity 63    
Minimum Humidity 28    
Precipitation  
Precipitation 0.00 in - - ()
Sea Level Pressure  
Sea Level Pressure 29.96 in    
Wind  
Wind Speed 4 mph ()    
Max Wind Speed 14 mph    
Max Gust Speed -    
Visibility 6.2 miles    
Events      
Averages and records for this station are not official NWS values.
T = Trace of Precipitation, MM = Missing Value Source: Averaged Metar Reports

Daily Weather History Graph

Daily Weather History Graph

Search for Another Location

Airport:

Trip Planner

Search our weather history database for the weather conditions in past years. The results will help you decide how hot, cold, wet, or windy it might be!

Date:

Astronomy

Oct. 29, 2011 Rise Set
Actual Time 5:54 AM IST 4:53 PM IST
Civil Twilight 5:29 AM IST 5:18 PM IST
Nautical Twilight 5:00 AM IST 5:47 PM IST
Astronomical Twilight 4:31 AM IST 6:16 PM IST
Moon 8:43 AM IST (10/29) 7:06 PM IST (10/29)
Length of Visible Light 11h 49m
Length of Day
10h 59m
Waxing Crescent, 10% of the Moon is Illuminated
Oct 29
Waxing Crescent
Nov 2
First Quarter
Nov 10
Full
Nov 18
Last Quarter
Nov 25
New

Hourly Weather History & Observations

Time (IST) Temp. Dew Point Humidity Pressure Visibility Wind Dir Wind Speed Gust Speed Precip Events Conditions
12:50 AM 64.4 °F 48.2 °F 56% 29.95 in 6.2 mi East 3.5 mph - N/A   Scattered Clouds
1:50 AM 64.4 °F 48.2 °F 56% 29.95 in 6.2 mi Calm Calm - N/A   Mostly Cloudy
2:00 AM 64 °F 48 °F 45% 29.96 in 6 mi Calm Calm - -   Mostly Cloudy
2:50 AM 64.4 °F 48.2 °F 56% 29.95 in 6.2 mi East 2.3 mph - N/A   Scattered Clouds
3:50 AM 62.6 °F 46.4 °F 55% 29.95 in 6.2 mi East 2.3 mph - N/A   Partly Cloudy
4:50 AM 60.8 °F 46.4 °F 59% 29.95 in - ENE 1.2 mph - N/A   Clear
5:50 AM 60.8 °F 48.2 °F 63% 29.95 in - East 2.3 mph - N/A   Clear
6:50 AM 60.8 °F 46.4 °F 59% 29.98 in - ENE 3.5 mph - N/A   Clear
7:50 AM 66.2 °F 46.4 °F 49% 29.98 in - SE 1.2 mph - N/A   Clear
8:00 AM 66 °F 47 °F 38% 29.99 in 6 mi SE 1.2 mph - -  
8:50 AM 69.8 °F 48.2 °F 46% 29.98 in - NNE 5.8 mph - N/A   Clear
9:50 AM 73.4 °F 46.4 °F 38% 29.98 in - North 9.2 mph - N/A   Clear
10:50 AM 75.2 °F 42.8 °F 31% 29.98 in - North 9.2 mph - N/A   Clear
11:50 AM 75.2 °F 46.4 °F 36% 29.95 in 6.2 mi North 10.4 mph - N/A   Partly Cloudy
12:50 PM 77.0 °F 46.4 °F 34% 29.95 in 6.2 mi NW 9.2 mph - N/A   Partly Cloudy
1:50 PM 77.0 °F 50.0 °F 39% 29.95 in 6.2 mi WNW 13.8 mph - N/A   Partly Cloudy
2:00 PM 76 °F 49 °F 28% 29.95 in 6 mi WNW 13.8 mph - -   Scattered Clouds
2:50 PM 75.2 °F 51.8 °F 44% 29.95 in 6.2 mi WNW 10.4 mph - N/A   Scattered Clouds
3:50 PM 73.4 °F 53.6 °F 50% 29.95 in 6.2 mi NW 5.8 mph - N/A   Scattered Clouds
4:50 PM 77.0 °F 53.6 °F 44% 29.95 in 6.2 mi NNW 6.9 mph - N/A   Mostly Cloudy
5:50 PM 71.6 °F 53.6 °F 53% 29.95 in 6.2 mi NNW 5.8 mph - N/A   Mostly Cloudy
6:50 PM 71.6 °F 53.6 °F 53% 29.98 in 6.2 mi North 2.3 mph - N/A   Mostly Cloudy
7:50 PM 71.6 °F 51.8 °F 50% 29.98 in 6.2 mi NNE 4.6 mph - N/A   Scattered Clouds
8:00 PM 71 °F 53 °F 41% 29.97 in 6 mi NNE 4.6 mph - -   Partly Cloudy
8:50 PM 71.6 °F 53.6 °F 53% 29.98 in 6.2 mi NNE 2.3 mph - N/A   Mostly Cloudy
9:50 PM 69.8 °F 51.8 °F 53% 29.98 in 6.2 mi North 1.2 mph - N/A   Mostly Cloudy
10:50 PM 69.8 °F 50.0 °F 49% 29.98 in 6.2 mi ENE 2.3 mph - N/A   Mostly Cloudy
11:50 PM 69.8 °F 50.0 °F 49% 29.98 in 6.2 mi East 2.3 mph - N/A   Mostly Cloudy